• In Hungary
  • List of Countries
  • For 7 days
  • Water Temperature
  • Satellite Maps
  • Weather Map
  • News
  • Weather Widgets
  • user-avatar
    Login

    Hourly Weather Tjumen'

    Today, 23 January, Tuesday

    Time Temperature Precipitation Wind Pressure Humidity
    00:00 -36°C° 0 mm 3 mps 783 mmHg 83%
    01:00 -36°C° 0 mm 3 mps 782 mmHg 82%
    02:00 -36°C° 0 mm 3 mps 783 mmHg 82%
    03:00 -36°C° 0 mm 3 mps 783 mmHg 82%
    04:00 -36°C° 0 mm 2 mps 783 mmHg 85%
    05:00 -36°C° 0 mm 2 mps 783 mmHg 85%
    06:00 -35°C° 0 mm 2 mps 783 mmHg 84%
    07:00 -36°C° 0 mm 3 mps 783 mmHg 83%
    08:00 -35°C° 0 mm 3 mps 783 mmHg 83%
    09:00 -34°C° 0 mm 3 mps 783 mmHg 82%
    10:00 -33°C° 0 mm 3 mps 784 mmHg 82%
    11:00 -32°C° 0 mm 3 mps 784 mmHg 83%
    12:00 -31°C° 0 mm 3 mps 783 mmHg 83%
    13:00 -30°C° 0 mm 3 mps 783 mmHg 83%
    14:00 -31°C° 0 mm 3 mps 783 mmHg 85%
    15:00 -31°C° 0 mm 3 mps 783 mmHg 86%
    16:00 -30°C° 0 mm 2 mps 784 mmHg 92%
    17:00 -30°C° 0 mm 2 mps 783 mmHg 90%
    18:00 -31°C° 0 mm 2 mps 783 mmHg 88%
    19:00 -33°C° 0 mm 3 mps 783 mmHg 87%
    20:00 -33°C° 0 mm 3 mps 783 mmHg 86%
    21:00 -33°C° 0 mm 3 mps 783 mmHg 85%
    22:00 -33°C° 0 mm 3 mps 783 mmHg 84%
    23:00 -33°C° 0 mm 3 mps 783 mmHg 83%

    Tomorrow, 24 January, Wednesday

    Time Temperature Precipitation Wind Pressure Humidity
    00:00 -33°C° 0 mm 3 mps 783 mmHg 83%
    01:00 -34°C° 0 mm 3 mps 783 mmHg 82%
    02:00 -34°C° 0 mm 3 mps 783 mmHg 82%
    03:00 -34°C° 0 mm 3 mps 782 mmHg 82%
    04:00 -34°C° 0 mm 3 mps 782 mmHg 81%
    05:00 -34°C° 0 mm 3 mps 782 mmHg 81%
    06:00 -34°C° 0 mm 3 mps 782 mmHg 81%
    07:00 -34°C° 0 mm 3 mps 782 mmHg 82%
    08:00 -33°C° 0 mm 3 mps 782 mmHg 81%
    09:00 -32°C° 0 mm 3 mps 782 mmHg 81%
    10:00 -32°C° 0 mm 3 mps 782 mmHg 80%
    11:00 -30°C° 0 mm 3 mps 782 mmHg 81%
    12:00 -27°C° 0 mm 2 mps 782 mmHg 82%
    13:00 -26°C° 0 mm 2 mps 782 mmHg 82%
    14:00 -27°C° 0 mm 2 mps 782 mmHg 85%
    15:00 -28°C° 0 mm 2 mps 782 mmHg 87%
    16:00 -29°C° 0 mm 2 mps 782 mmHg 89%
    17:00 -29°C° 0 mm 2 mps 782 mmHg 88%
    18:00 -29°C° 0 mm 2 mps 782 mmHg 88%
    19:00 -30°C° 0 mm 2 mps 782 mmHg 87%
    20:00 -30°C° 0 mm 2 mps 782 mmHg 86%
    21:00 -30°C° 0 mm 2 mps 782 mmHg 86%
    22:00 -30°C° 0 mm 2 mps 782 mmHg 85%
    23:00 -30°C° 0 mm 2 mps 782 mmHg 85%

    Day after tomorrow, 25 January, Thursday

    Time Temperature Precipitation Wind Pressure Humidity
    00:00 -30°C° 0 mm 2 mps 782 mmHg 85%
    01:00 -31°C° 0 mm 2 mps 782 mmHg 84%
    02:00 -31°C° 0 mm 2 mps 782 mmHg 84%
    03:00 -31°C° 0 mm 2 mps 782 mmHg 84%
    04:00 -31°C° 0 mm 2 mps 782 mmHg 83%
    05:00 -31°C° 0 mm 2 mps 782 mmHg 82%
    06:00 -31°C° 0 mm 2 mps 783 mmHg 82%
    07:00 -31°C° 0 mm 2 mps 783 mmHg 81%
    08:00 -30°C° 0 mm 2 mps 783 mmHg 80%
    09:00 -29°C° 0 mm 2 mps 783 mmHg 78%
    10:00 -30°C° 0 mm 3 mps 783 mmHg 76%
    11:00 -30°C° 0 mm 3 mps 783 mmHg 78%
    12:00 -29°C° 0 mm 3 mps 783 mmHg 79%
    13:00 -27°C° 0 mm 3 mps 783 mmHg 81%
    14:00 -27°C° 0 mm 2 mps 783 mmHg 84%
    15:00 -27°C° 0 mm 2 mps 784 mmHg 87%
    16:00 -28°C° 0 mm 2 mps 784 mmHg 90%
    17:00 -29°C° 0 mm 2 mps 784 mmHg 90%
    18:00 -31°C° 0 mm 3 mps 784 mmHg 91%
    19:00 -32°C° 0 mm 3 mps 784 mmHg 91%
    20:00 -32°C° 0 mm 3 mps 784 mmHg 91%
    21:00 -32°C° 0 mm 3 mps 784 mmHg 91%
    22:00 -32°C° 0 mm 3 mps 784 mmHg 91%
    23:00 -32°C° 0 mm 3 mps 784 mmHg 91%

    26 January, Friday

    Time Temperature Precipitation Wind Pressure Humidity
    00:00 -32°C° 0 mm 3 mps 784 mmHg 91%
    01:00 -33°C° 0 mm 3 mps 784 mmHg 90%
    02:00 -33°C° 0 mm 3 mps 784 mmHg 90%
    03:00 -33°C° 0 mm 3 mps 784 mmHg 90%
    04:00 -33°C° 0 mm 3 mps 784 mmHg 89%
    05:00 -33°C° 0 mm 3 mps 784 mmHg 89%
    06:00 -32°C° 0 mm 3 mps 784 mmHg 89%
    07:00 -32°C° 0 mm 3 mps 784 mmHg 89%
    08:00 -31°C° 0 mm 3 mps 784 mmHg 88%
    09:00 -30°C° 0 mm 3 mps 784 mmHg 86%
    10:00 -29°C° 0 mm 3 mps 784 mmHg 85%
    11:00 -27°C° 0 mm 3 mps 784 mmHg 84%
    12:00 -26°C° 0 mm 3 mps 784 mmHg 84%
    13:00 -25°C° 0 mm 3 mps 783 mmHg 83%
    14:00 -25°C° 0 mm 3 mps 783 mmHg 84%
    15:00 -26°C° 0 mm 3 mps 783 mmHg 85%
    16:00 -26°C° 0 mm 3 mps 783 mmHg 86%
    17:00 -27°C° 0 mm 3 mps 783 mmHg 86%
    18:00 -29°C° 0 mm 4 mps 782 mmHg 85%
    19:00 -29°C° 0 mm 4 mps 782 mmHg 85%
    20:00 -29°C° 0 mm 4 mps 782 mmHg 84%
    21:00 -29°C° 0 mm 4 mps 782 mmHg 82%
    22:00 -29°C° 0 mm 4 mps 782 mmHg 81%
    23:00 -29°C° 0 mm 4 mps 781 mmHg 80%

    27 January, Saturday

    Time Temperature Precipitation Wind Pressure Humidity
    00:00 -29°C° 0 mm 4 mps 781 mmHg 80%
    01:00 -29°C° 0 mm 4 mps 781 mmHg 79%
    02:00 -29°C° 0 mm 4 mps 781 mmHg 78%
    03:00 -29°C° 0 mm 4 mps 780 mmHg 78%
    04:00 -29°C° 0 mm 4 mps 780 mmHg 77%
    05:00 -29°C° 0 mm 4 mps 780 mmHg 77%
    06:00 -29°C° 0 mm 4 mps 780 mmHg 77%
    07:00 -29°C° 0 mm 4 mps 780 mmHg 77%
    08:00 -27°C° 0 mm 4 mps 779 mmHg 77%
    09:00 -26°C° 0 mm 4 mps 779 mmHg 77%
    10:00 -25°C° 0 mm 4 mps 778 mmHg 76%
    11:00 -24°C° 0 mm 4 mps 778 mmHg 77%
    12:00 -23°C° 0 mm 4 mps 777 mmHg 77%
    13:00 -22°C° 0 mm 4 mps 777 mmHg 77%
    14:00 -22°C° 0 mm 4 mps 777 mmHg 77%
    15:00 -22°C° 0 mm 4 mps 776 mmHg 77%
    16:00 -22°C° 0 mm 4 mps 776 mmHg 78%
    17:00 -22°C° 0 mm 4 mps 776 mmHg 78%
    18:00 -21°C° 0 mm 5 mps 775 mmHg 78%
    19:00 -21°C° 0 mm 5 mps 775 mmHg 78%
    20:00 -21°C° 0 mm 5 mps 775 mmHg 77%
    21:00 -20°C° 0 mm 5 mps 774 mmHg 77%
    22:00 -20°C° 0 mm 5 mps 774 mmHg 77%
    23:00 -19°C° 0 mm 5 mps 773 mmHg 76%

    28 January, Sunday

    Time Temperature Precipitation Wind Pressure Humidity
    00:00 -19°C° 0 mm 5 mps 773 mmHg 76%
    01:00 -19°C° 0 mm 5 mps 773 mmHg 75%
    02:00 -19°C° 0 mm 5 mps 772 mmHg 75%
    03:00 -19°C° 0 mm 5 mps 772 mmHg 74%
    04:00 -19°C° 0 mm 5 mps 772 mmHg 74%
    05:00 -19°C° 0 mm 5 mps 771 mmHg 73%
    06:00 -18°C° 0 mm 5 mps 771 mmHg 73%
    07:00 -18°C° 0 mm 5 mps 771 mmHg 72%
    08:00 -18°C° 0 mm 5 mps 770 mmHg 70%
    09:00 -17°C° 0 mm 5 mps 770 mmHg 69%
    10:00 -16°C° 0 mm 6 mps 770 mmHg 67%
    11:00 -15°C° 0 mm 6 mps 770 mmHg 67%
    12:00 -15°C° 0 mm 6 mps 769 mmHg 67%
    13:00 -14°C° 0 mm 6 mps 769 mmHg 67%
    14:00 -13°C° 0 mm 5 mps 769 mmHg 68%
    15:00 -14°C° 0 mm 5 mps 768 mmHg 70%
    16:00 -14°C° 0 mm 5 mps 768 mmHg 72%
    17:00 -14°C° 0 mm 5 mps 768 mmHg 73%
    18:00 -14°C° 0 mm 5 mps 768 mmHg 73%
    19:00 -14°C° 0 mm 5 mps 768 mmHg 74%
    20:00 -15°C° 0 mm 4 mps 768 mmHg 74%
    21:00 -15°C° 0 mm 4 mps 767 mmHg 75%
    22:00 -15°C° 0 mm 4 mps 767 mmHg 76%
    23:00 -15°C° 0 mm 4 mps 767 mmHg 76%
    Show more